Location: Newark
(47.3150°N, 5.1150°E)
Time: 14:11:09
(UTC+00:00)

AO-7 - Pass Details

Date: 18 December 2019
Orbit: 1440 x 1459 km, 101.8° (Epoch: 17 January)

Event Time Altitude Azimuth Distance (km) Brightness Sun altitude
Rises 03:22:17 0° 19° (NNE) 4,564 ? -39.4°
Reaches altitude 10° 03:25:07 10° 22° (NNE) 3,585 ? -38.9°
Maximum altitude 03:33:28 69° 106° (ESE) 1,546 ? -37.5°
Enters shadow 03:35:40 52° 166° (SSE) 1,766 ? -37.1°
